EST,Max TemperatureF,Mean TemperatureF,Min TemperatureF,Max Dew PointF,MeanDew PointF,Min DewpointF,Max Humidity, Mean Humidity, Min Humidity, Max Sea Level PressureIn, Mean Sea Level PressureIn, Min Sea Level PressureIn, Max VisibilityMiles, Mean VisibilityMiles, Min VisibilityMiles, Max Wind SpeedMPH, Mean Wind SpeedMPH, Max Gust SpeedMPH,PrecipitationIn, CloudCover, Events, WindDirDegrees
2013-1-1,28,24,19,25,23,14,100,90,78,30.03,29.94,29.85,10,5,1,23,13,29,0.01,8,Rain-Snow,280
2013-1-2,19,16,14,13,9,8,81,74,62,30.22,30.10,29.93,10,8,2,16,10,22,0.03,5,Snow,279
2013-1-3,27,20,12,16,12,7,81,73,63,30.21,30.15,30.04,10,10,9,24,9,33,0.00,3,Snow,247
2013-1-4,26,24,21,19,17,15,93,80,66,30.19,30.11,30.01,10,5,0,28,19,41,0.01,6,Fog-Snow,264
2013-1-5,30,24,19,19,17,14,86,73,61,30.38,30.26,30.16,10,10,9,22,13,32,0.00,5,,254
2013-1-6,33,30,28,27,23,18,88,73,64,30.15,30.06,29.93,10,10,5,17,11,24,0.00,8,Rain-Snow,249
2013-1-7,28,26,23,25,22,17,92,83,74,30.43,30.32,30.09,10,6,2,16,11,21,0.00,6,,260
2013-1-8,39,29,19,23,20,13,88,59,49,30.38,30.34,30.28,10,10,7,13,8,,0.00,0,,223
2013-1-9,42,35,28,39,31,21,100,78,57,30.42,30.26,30.15,10,8,0,22,11,30,0.02,5,Fog-Rain,233
2013-1-10,37,32,28,25,23,20,85,66,50,30.59,30.51,30.41,10,10,8,22,9,31,0.00,0,,278
2013-1-11,46,40,34,45,36,22,100,89,57,30.39,30.09,30.01,10,5,0,15,9,22,0.38,7,Fog-Rain,174
2013-1-12,55,50,44,51,48,43,100,92,80,30.12,30.06,30.02,10,7,0,12,7,,0.00,6,Fog,216
2013-1-13,61,56,51,52,49,47,96,79,67,30.01,29.94,29.89,10,8,1,14,9,21,0.11,4,Rain,212
2013-1-14,53,42,28,54,37,22,100,88,70,30.34,30.10,29.90,10,8,1,23,10,37,0.11,7,Rain,273
2013-1-15,30,28,25,27,23,20,96,82,66,30.36,30.20,30.03,10,7,1,8,3,,0.22,7,Rain-Snow,75
2013-1-16,32,29,26,31,27,21,100,93,72,30.09,29.94,29.80,10,5,0,14,7,21,0.19,7,Fog-Rain-Snow,192
2013-1-17,30,28,26,25,23,21,89,83,69,30.15,30.06,29.94,10,7,1,20,11,28,0.00,6,Snow,264
2013-1-18,28,20,12,23,12,3,86,72,38,30.45,30.23,30.02,10,4,0,30,19,38,0.00,5,Fog-Snow,287
2013-1-19,46,37,28,18,11,1,40,33,28,30.28,30.09,29.84,10,10,10,22,14,33,0.00,0,,221
2013-1-20,41,29,17,26,16,9,71,57,45,30.07,29.92,29.76,10,10,10,25,19,41,0.00,3,,270
2013-1-21,21,14,7,18,11,-4,93,80,61,30.06,29.88,29.76,10,4,0,23,10,30,0.00,8,Fog-Snow,264
2013-1-22,6,4,1,1,-4,-8,85,72,56,30.25,30.02,29.84,10,4,0,24,17,34,0.00,8,Fog-Snow,279
2013-1-23,8,4,0,3,-3,-8,87,74,61,30.27,30.14,29.96,10,7,2,16,11,25,0.00,7,Snow,270
2013-1-24,12,8,5,4,1,-8,87,76,42,30.52,30.14,29.89,10,4,0,20,5,26,0.01,6,Fog-Snow,301
2013-1-25,15,10,5,12,5,-3,88,80,67,30.48,30.12,29.88,10,5,0,15,4,,0.02,6,Fog-Snow,187
2013-1-26,19,16,14,16,14,10,88,84,74,30.42,30.13,29.93,10,3,0,16,11,23,0.01,8,Fog-Snow,285
2013-1-27,27,20,14,17,13,10,93,74,51,30.54,30.44,30.29,10,7,2,7,3,,0.00,5,Snow,205
2013-1-28,46,35,24,46,36,17,100,94,69,30.34,30.09,29.97,10,2,0,22,11,32,0.53,8,Fog-Rain-Snow,221
2013-1-29,57,52,46,49,47,46,100,88,69,30.07,30.00,29.88,10,4,0,20,13,30,0.06,3,Fog-Rain,219
2013-1-30,61,54,48,52,48,44,96,85,69,29.85,29.50,29.24,10,7,1,26,15,47,0.94,5,Rain,200
2013-1-31,46,32,17,45,19,7,100,78,57,29.81,29.48,29.18,10,4,0,36,22,51,0.12,8,Fog-Rain-Snow,265